CZ-3C DEB, 40819

Orbit data source: Space-Track

CZ-3C DEB, 40819 is space debris in HEO originally from a launch on Sun, 31 Oct 2010 UTC launched from the Xichang Space Center, China (XSC). Debris objects in space refer to the collection of defunct objects orbiting the Earth. Examples of debris include non-operational satellites, rocket bodies, and fragments generated from explosions, collisions, or faulty payload assembly.

Loading next visibility...
Identifier
40819, 2010-057AL
Orbit
HEO
Country
Flag of CNCN / PRC
Related business
Manufacturer
CALT
Mission
Spacecraft
Bus & Motor
Unknown
Mass
Unknown
Launch date (UTC)
2010-10-31 (15 years ago)
Launch vehicle
Unknown
Launch site
Xichang Space Center, China (XSC)
Object type
Payload
Rocket body
Debris
Shape & HBR
Unknown
Radar Cross Section
Medium (>0.1 m² and <1 m²)

Expand to show TLE details & history
Last TLE update: 2 days ago

TLE from 2 days ago
0 CZ-3C DEB
1 40819U 10057AL  25241.13896250  .00001002  00000-0  79597-2 0  9995
2 40819  20.3372  89.9855 7136264 168.6345 226.1952  2.31969109 89900
Epoch: 2025-08-29T03:20Z
TLE epoch observation values (Epoch: 2025-08-29T03:20:06.359Z)
Latitude
-0.00004°
Longitude
62.39241°
Altitude
32,985.166 km
Speed
1.928 km/s
True Right ascension
06h 00m 02s
True Declination
0° 00' 00"
Sunlit
Object was in daylight at epoch
Visualization orbit readout
Latitude
Unknown
Longitude
Unknown
Altitude
Unknown
Speed
Unknown
Apparent Right ascension
Unknown
Apparent Declination
Unknown
Sunlit
N/A
Visualization observer readout
Local Sidereal Time
16:49:53
Azimuth
Unknown
Elevation
Unknown
Doppler factor
Unknown
Orbital elements
Apogee altitude
34,937.066 km
Perigee altitude
526.275 km
Semi-major axis
24,109.808 km
Eccentricity
0.71363
Inclination
20.3372°
RAAN
89.9855°
Arg. of periapsis
168.6345°
True anomaly
191.37634°
Mean anomaly
226.1952°
Eccentric anomaly
207.38693°
Mean motion
0.57977 °/min
Orbital period
620.94 mins
BSTAR
0.0079597
Loading maneuver chart data...
Computing Atmospheric mass density...
Loading historical data...
Loading historical data...
Loading historical data...
Loading historical data...
Loading historical data...
Loading historical data...
Loading historical data...

Documentation

Showing up to 5 results
|